GW7052 Weather Reports


time (UTC)temp
C
wind
direction
speed
KPH
gust
KPH
rain 1hr
cm
rain 24hr
cm
rain mn
cm
humidity
%
barometer
mb
20260507110450 11 35 1.6 1.6 0.00 0.00 0.00 72 1022.2
20260507105946 11 35 1.6 4.8 0.00 0.00 0.00 72 1022.2
20260507105443 12 36 1.6 3.2 0.00 0.00 0.00 72 1022.3
20260507104940 12 36 1.6 1.6 0.00 0.00 0.00 72 1022.2
20260507104437 12 36 1.6 1.6 0.00 0.00 0.00 72 1022.3
20260507103932 12 36 1.6 1.6 0.00 0.00 0.00 71 1022.4
20260507103430 12 36 0.0 1.6 0.00 0.00 0.00 72 1022.4
20260507102925 12 36 0.0 1.6 0.00 0.00 0.00 72 1022.3
20260507102423 12 37 0.0 0.0 0.00 0.00 0.00 71 1022.3
20260507101919 12 36 1.6 3.2 0.00 0.00 0.00 72 1022.4
20260507101414 12 36 3.2 3.2 0.00 0.00 0.00 72 1022.5
20260507100911 12 37 0.0 0.0 0.00 0.00 0.00 73 1022.6
20260507100409 12 37 0.0 0.0 0.00 0.00 0.00 74 1022.4
20260507095907 12 37 0.0 0.0 0.00 0.00 0.00 76 1022.5
20260507095403 12 38 0.0 1.6 0.00 0.00 0.00 74 1022.3
20260507094900 12 37 0.0 0.0 0.00 0.00 0.00 74 1022.4
20260507094357 12 37 0.0 1.6 0.00 0.00 0.00 75 1022.6
20260507093854 12 37 0.0 0.0 0.00 0.00 0.00 75 1022.7
20260507093352 12 37 0.0 0.0 0.00 0.00 0.00 76 1022.6
20260507092850 12 37 0.0 0.0 0.00 0.00 0.00 76 1022.8
20260507092346 12 37 0.0 0.0 0.00 0.00 0.00 76 1022.7
20260507091842 12 37 0.0 0.0 0.00 0.00 0.00 76 1022.7
20260507091339 12 37 0.0 1.6 0.00 0.00 0.00 75 1022.9
20260507090834 12 37 0.0 0.0 0.00 0.00 0.00 75 1023.1
20260507090331 12 37 0.0 0.0 0.00 0.00 0.00 76 1022.9
20260507085828 12 38 0.0 0.0 0.00 0.00 0.00 75 1023.1
20260507085325 12 37 0.0 0.0 0.00 0.00 0.00 75 1023.0
20260507084822 12 37 0.0 0.0 0.00 0.00 0.00 74 1023.0
20260507084319 12 37 0.0 0.0 0.00 0.00 0.00 74 1022.7
20260507083816 12 37 0.0 1.6 0.00 0.00 0.00 73 1022.9
20260507083313 12 37 0.0 0.0 0.00 0.00 0.00 75 1023.0
20260507082809 12 37 0.0 0.0 0.00 0.00 0.00 75 1022.9
20260507082306 12 37 0.0 0.0 0.00 0.00 0.00 75 1022.9
20260507081802 12 37 0.0 0.0 0.00 0.00 0.00 74 1022.9
20260507081257 12 38 0.0 0.0 0.00 0.00 0.00 74 1022.8
20260507080754 12 38 0.0 1.6 0.00 0.00 0.00 74 1023.1
20260507080251 12 37 0.0 0.0 0.00 0.00 0.00 73 1022.8
20260507075746 12 38 0.0 0.0 0.00 0.00 0.00 73 1023.0
20260507075242 12 38 0.0 0.0 0.00 0.00 0.00 73 1023.0
20260507074738 12 38 0.0 0.0 0.00 0.00 0.00 73 1023.0
20260507074237 12 38 0.0 1.6 0.00 0.00 0.00 73 1022.9
20260507073733 12 38 1.6 1.6 0.00 0.00 0.00 73 1023.0
20260507073230 12 38 0.0 0.0 0.00 0.00 0.00 73 1022.9
20260507072728 12 38 0.0 0.0 0.00 0.00 0.00 74 1022.9
20260507072225 12 38 0.0 0.0 0.00 0.00 0.00 74 1022.9
20260507071722 12 38 1.6 1.6 0.00 0.00 0.00 74 1022.9
20260507071219 12 38 0.0 0.0 0.00 0.00 0.00 74 1022.7
20260507070716 12 36 1.6 1.6 0.00 0.00 0.00 74 1022.6
20260507070213 12 35 1.6 1.6 0.00 0.00 0.00 74 1022.5
20260507065709 12 38 1.6 3.2 0.00 0.00 0.00 74 1022.8
20260507065206 12 9 3.2 6.4 0.00 0.00 0.00 74 1023.0
20260507064703 12 330 1.6 9.7 0.00 0.00 0.00 74 1022.8
20260507064202 12 69 4.8 4.8 0.00 0.00 0.00 75 1022.7
20260507063659 12 0 6.4 6.4 0.00 0.00 0.00 75 1022.6
20260507063155 12 62 4.8 4.8 0.00 0.00 0.00 76 1022.6
20260507062652 12 33 1.6 3.2 0.00 0.00 0.00 76 1022.6
20260507062150 12 34 3.2 6.4 0.00 0.00 0.00 76 1022.8
20260507061648 12 38 1.6 4.8 0.00 0.00 0.00 76 1022.6
20260507061146 12 61 1.6 3.2 0.00 0.00 0.00 76 1022.7
20260507060643 12 348 3.2 4.8 0.00 0.00 0.00 76 1022.8
20260507060140 12 329 1.6 3.2 0.00 0.00 0.00 76 1023.1
20260507055635 12 28 1.6 9.7 0.00 0.00 0.00 76 1022.9
20260507055131 12 27 3.2 9.7 0.00 0.00 0.00 76 1022.8
20260507054627 13 345 3.2 3.2 0.00 0.00 0.00 76 1022.8
20260507054125 13 45 3.2 9.7 0.00 0.00 0.00 76 1022.9
20260507053623 13 1 1.6 3.2 0.00 0.00 0.00 76 1022.7
20260507053121 13 44 4.8 4.8 0.00 0.00 0.00 76 1023.0
20260507052618 13 52 1.6 6.4 0.00 0.00 0.00 76 1022.7
20260507052115 13 12 3.2 4.8 0.00 0.00 0.00 75 1022.8
20260507051612 13 53 1.6 4.8 0.00 0.00 0.00 75 1022.6
20260507051109 13 320 1.6 3.2 0.00 0.00 0.00 75 1022.7
20260507050606 13 28 3.2 9.7 0.00 0.00 0.00 75 1022.7
20260507045559 13 58 1.6 6.4 0.00 0.00 0.00 75 1022.8
20260507045056 13 26 1.6 3.2 0.00 0.00 0.00 74 1022.7
20260507044553 13 21 6.4 11.3 0.00 0.00 0.00 74 1022.8
20260507044050 13 49 4.8 12.9 0.00 0.00 0.00 74 1022.7
20260507043545 13 3 3.2 9.7 0.00 0.00 0.00 74 1022.7
20260507043043 13 41 1.6 6.4 0.00 0.00 0.00 73 1022.7
20260507042539 13 358 4.8 6.4 0.00 0.00 0.00 73 1022.5
20260507042034 13 1 0.0 0.0 0.00 0.00 0.00 73 1022.6
20260507041532 14 298 1.6 4.8 0.00 0.00 0.00 73 1022.4
20260507041028 14 23 4.8 11.3 0.00 0.00 0.00 73 1022.6
20260507040525 14 28 6.4 6.4 0.00 0.00 0.00 73 1022.4
20260507040021 14 6 3.2 3.2 0.00 0.00 0.00 73 1022.3
20260507035517 14 18 6.4 6.4 0.00 0.00 0.00 73 1022.3
20260507035014 15 170 3.2 3.2 0.00 0.00 0.00 73 1022.2
20260507034511 15 72 1.6 4.8 0.00 0.00 0.00 73 1022.1
20260507034009 15 40 4.8 9.7 0.00 0.00 0.00 73 1022.0
20260507033506 15 48 1.6 6.4 0.00 0.00 0.00 73 1021.7
20260507033004 15 30 4.8 4.8 0.00 0.00 0.00 74 1021.8
20260507032500 15 25 1.6 4.8 0.00 0.00 0.00 74 1021.7
20260507031956 15 42 3.2 4.8 0.00 0.00 0.00 74 1021.6
20260507031453 15 52 3.2 3.2 0.00 0.00 0.00 74 1021.8
20260507030950 15 61 0.0 0.0 0.00 0.00 0.00 75 1021.5
20260507030447 15 61 0.0 0.0 0.00 0.00 0.00 74 1021.3
20260507025944 15 64 3.2 3.2 0.00 0.00 0.00 74 1021.5
20260507025441 15 30 0.0 0.0 0.00 0.00 0.00 74 1021.5
20260507024939 15 30 1.6 1.6 0.00 0.00 0.00 73 1021.4
20260507024436 15 29 3.2 6.4 0.00 0.00 0.00 73 1021.4
20260507023932 15 14 3.2 9.7 0.00 0.00 0.00 72 1021.2
20260507023429 15 18 0.0 4.8 0.00 0.00 0.00 72 1021.2
20260507022926 15 33 3.2 6.4 0.00 0.00 0.00 71 1021.2
20260507022423 16 65 3.2 9.7 0.00 0.00 0.00 70 1021.1
20260507021919 16 53 1.6 3.2 0.00 0.00 0.00 70 1021.2
20260507021414 16 8 6.4 9.7 0.00 0.00 0.00 69 1021.4
20260507020912 16 153 3.2 6.4 0.00 0.00 0.00 69 1021.1
20260507020408 16 325 6.4 11.3 0.00 0.00 0.00 68 1021.2
20260507015905 16 10 1.6 4.8 0.00 0.00 0.00 68 1021.3
20260507015403 16 62 3.2 4.8 0.00 0.00 0.00 67 1021.3
20260507014900 16 23 6.4 9.7 0.00 0.00 0.00 67 1021.2
20260507014356 17 341 3.2 9.7 0.00 0.00 0.00 66 1021.3
20260507013853 17 21 3.2 11.3 0.00 0.00 0.00 67 1021.4
20260507013350 17 59 6.4 16.1 0.00 0.00 0.00 66 1021.2
20260507012848 17 312 6.4 12.9 0.00 0.00 0.00 66 1021.1
20260507012343 17 4 1.6 4.8 0.00 0.00 0.00 66 1021.2
20260507011841 17 354 6.4 9.7 0.00 0.00 0.00 66 1021.1
20260507011338 17 11 11.3 12.9 0.00 0.00 0.00 65 1021.1
20260507010837 18 38 3.2 11.3 0.00 0.00 0.00 66 1021.1
20260507010333 18 340 6.4 11.3 0.00 0.00 0.00 66 1021.2
20260507005831 18 328 4.8 6.4 0.00 0.00 0.00 66 1021.1
20260507005327 18 19 6.4 14.5 0.00 0.00 0.00 66 1021.2
20260507004824 18 305 3.2 9.7 0.00 0.00 0.00 66 1021.2
20260507004321 18 53 11.3 12.9 0.00 0.00 0.00 65 1021.3
20260507003818 18 356 1.6 4.8 0.00 0.00 0.00 66 1021.1
20260507003314 18 19 6.4 9.7 0.00 0.00 0.00 66 1021.0
20260507002809 18 9 6.4 9.7 0.00 0.00 0.00 65 1020.9
20260507002306 19 1 6.4 11.3 0.00 0.00 0.00 64 1021.0
20260507001803 19 21 1.6 3.2 0.00 0.00 0.00 62 1021.0
20260507001300 20 46 1.6 4.8 0.00 0.00 0.00 61 1020.9
20260507000756 20 17 0.0 4.8 0.00 0.00 0.00 62 1021.0
20260507000252 20 10 3.2 4.8 0.00 0.00 0.00 62 1021.0
20260506235749 20 345 1.6 3.2 0.00 0.00 0.00 62 1020.8
20260506235244 20 9 3.2 6.4 0.00 0.00 0.00 60 1021.1
20260506234742 20 103 4.8 4.8 0.00 0.00 0.00 60 1021.1
20260506234238 20 140 0.0 0.0 0.00 0.00 0.00 58 1021.0
20260506233736 20 139 1.6 3.2 0.00 0.00 0.00 58 1020.9
20260506233232 21 163 1.6 1.6 0.00 0.00 0.00 59 1020.8
20260506232729 21 163 0.0 1.6 0.00 0.00 0.00 58 1020.7
20260506232224 21 162 1.6 1.6 0.00 0.00 0.00 58 1021.1
20260506231721 20 159 3.2 3.2 0.00 0.00 0.00 60 1021.2
20260506231220 20 135 1.6 1.6 0.00 0.00 0.00 61 1021.1
20260506230716 20 132 1.6 1.6 0.00 0.00 0.00 60 1021.3
20260506230213 21 112 4.8 4.8 0.00 0.00 0.00 57 1021.3
20260506225710 21 201 0.0 1.6 0.00 0.00 0.00 60 1021.3
20260506225206 21 201 1.6 1.6 0.00 0.00 0.00 58 1021.4
20260506224703 20 206 0.0 1.6 0.00 0.00 0.00 59 1021.5
20260506224200 20 209 1.6 3.2 0.00 0.00 0.00 59 1021.5
20260506223656 21 164 3.2 3.2 0.00 0.00 0.00 58 1021.6
20260506223152 21 173 1.6 1.6 0.00 0.00 0.00 55 1021.4
20260506222649 22 193 3.2 1.6 0.00 0.00 0.00 54 1021.5
20260506222145 22 212 1.6 3.2 0.00 0.00 0.00 54 1021.6
20260506221643 21 198 3.2 3.2 0.00 0.00 0.00 57 1021.6
20260506221141 20 211 3.2 4.8 0.00 0.00 0.00 58 1021.7
20260506220637 20 201 3.2 1.6 0.00 0.00 0.00 58 1021.7
20260506220132 20 218 3.2 9.7 0.00 0.00 0.00 59 1021.7
20260506215629 21 310 6.4 6.4 0.00 0.00 0.00 56 1021.6
20260506215125 22 170 0.0 4.8 0.00 0.00 0.00 53 1021.6
20260506214622 21 205 3.2 3.2 0.00 0.00 0.00 56 1021.6
20260506214119 21 207 3.2 4.8 0.00 0.00 0.00 58 1021.5
20260506213618 20 179 3.2 3.2 0.00 0.00 0.00 59 1021.5
20260506213114 19 178 3.2 1.6 0.00 0.00 0.00 63 1021.7
20260506212612 19 177 1.6 1.6 0.00 0.00 0.00 63 1021.8
20260506212106 19 177 0.0 0.0 0.00 0.00 0.00 63 1021.9
20260506211602 20 177 1.6 1.6 0.00 0.00 0.00 61 1022.0
20260506211100 20 177 1.6 3.2 0.00 0.00 0.00 61 1022.0
20260506210556 19 187 3.2 3.2 0.00 0.00 0.00 63 1022.1
20260506210053 19 188 3.2 3.2 0.00 0.00 0.00 63 1022.2
20260506205549 19 186 0.0 1.6 0.00 0.00 0.00 64 1022.1
20260506205044 19 186 0.0 1.6 0.00 0.00 0.00 64 1022.1
20260506204543 19 186 0.0 1.6 0.00 0.00 0.00 62 1021.9
20260506204039 19 192 1.6 1.6 0.00 0.00 0.00 64 1021.9
20260506203538 20 190 1.6 1.6 0.00 0.00 0.00 63 1022.0
20260506203034 20 190 0.0 1.6 0.00 0.00 0.00 63 1022.1
20260506202531 20 213 1.6 1.6 0.00 0.00 0.00 63 1022.0
20260506202027 20 214 0.0 3.2 0.00 0.00 0.00 61 1022.0
20260506201526 19 200 1.6 1.6 0.00 0.00 0.00 64 1022.1
20260506201022 18 179 1.6 1.6 0.00 0.00 0.00 66 1022.2
20260506200518 18 179 3.2 3.2 0.00 0.00 0.00 64 1022.3
20260506200015 18 189 0.0 1.6 0.00 0.00 0.00 65 1022.2
20260506195512 18 190 1.6 3.2 0.00 0.00 0.00 66 1022.3
20260506195008 18 185 0.0 1.6 0.00 0.00 0.00 67 1022.5
20260506194506 17 186 1.6 1.6 0.00 0.00 0.00 68 1022.4
20260506194002 17 192 0.0 1.6 0.00 0.00 0.00 69 1022.5
20260506193500 17 195 0.0 1.6 0.00 0.00 0.00 69 1022.5
20260506192956 17 195 0.0 1.6 0.00 0.00 0.00 69 1022.6
20260506192453 17 218 1.6 1.6 0.00 0.00 0.00 70 1022.4
20260506191949 17 218 0.0 1.6 0.00 0.00 0.00 70 1022.5
20260506191446 17 218 0.0 1.6 0.00 0.00 0.00 69 1022.3
20260506190942 17 218 0.0 1.6 0.00 0.00 0.00 69 1022.4
20260506190440 17 215 0.0 1.6 0.00 0.00 0.00 70 1022.3
20260506185936 17 216 1.6 1.6 0.00 0.00 0.00 71 1022.5
20260506185433 17 216 0.0 1.6 0.00 0.00 0.00 71 1022.6
20260506184930 17 217 0.0 3.2 0.00 0.00 0.00 71 1022.2
20260506184427 17 212 0.0 1.6 0.00 0.00 0.00 70 1022.5
20260506183925 17 211 1.6 1.6 0.00 0.00 0.00 70 1022.2
20260506183420 17 208 1.6 1.6 0.00 0.00 0.00 71 1022.3
20260506182918 17 208 0.0 1.6 0.00 0.00 0.00 71 1022.3
20260506182415 16 209 1.6 1.6 0.00 0.00 0.00 72 1022.4
20260506181912 16 209 0.0 1.6 0.00 0.00 0.00 73 1022.4
20260506181410 16 209 0.0 1.6 0.00 0.00 0.00 72 1022.2
20260506180906 16 209 1.6 1.6 0.00 0.00 0.00 72 1022.3
20260506180402 16 210 0.0 1.6 0.00 0.00 0.00 73 1022.3
20260506175859 16 209 0.0 1.6 0.00 0.00 0.00 74 1022.4
20260506175356 15 210 0.0 0.0 0.00 0.00 0.00 76 1022.6
20260506174853 15 210 0.0 0.0 0.00 0.00 0.00 76 1022.3
20260506174350 15 210 3.2 4.8 0.00 0.00 0.00 76 1022.5
20260506173848 15 175 1.6 1.6 0.00 0.00 0.00 76 1022.4
20260506173344 15 175 0.0 1.6 0.00 0.00 0.00 76 1022.2
20260506172841 15 172 0.0 0.0 0.00 0.00 0.00 77 1022.0
20260506172338 15 172 0.0 0.0 0.00 0.00 0.00 77 1022.4
20260506171836 15 142 1.6 1.6 0.00 0.00 0.00 78 1022.0
20260506171333 15 139 0.0 0.0 0.00 0.00 0.00 79 1022.1
20260506170830 15 138 0.0 1.6 0.00 0.00 0.00 79 1022.1
20260506170326 15 138 0.0 1.6 0.00 0.00 0.00 80 1022.2
20260506165826 15 14 1.6 1.6 0.00 0.00 0.00 80 1022.3
20260506165323 14 14 0.0 0.0 0.00 0.00 0.00 80 1022.4
20260506164819 14 14 0.0 0.0 0.00 0.00 0.00 81 1022.3
20260506164316 14 13 0.0 1.6 0.00 0.00 0.00 81 1022.1
20260506163813 13 14 0.0 0.0 0.00 0.00 0.00 82 1022.2
20260506163308 13 15 0.0 1.6 0.00 0.00 0.00 82 1022.3
20260506162803 13 17 1.6 1.6 0.00 0.00 0.00 82 1022.0
20260506162302 13 17 0.0 0.0 0.00 0.00 0.00 82 1022.0
20260506161759 13 17 0.0 1.6 0.00 0.00 0.00 82 1022.1
20260506161256 13 17 1.6 1.6 0.00 0.00 0.00 83 1021.8
20260506160753 13 16 1.6 1.6 0.00 0.00 0.00 82 1021.9
20260506160250 13 16 0.0 1.6 0.00 0.00 0.00 83 1021.8
20260506155749 13 21 4.8 6.4 0.00 0.00 0.00 82 1021.7
20260506155245 13 266 4.8 4.8 0.00 0.00 0.00 82 1021.6
20260506153352 13 7 0.0 1.6 0.00 0.00 0.00 84 1021.7
20260506152849 13 7 1.6 3.2 0.00 0.00 0.00 83 1021.9
20260506152346 13 7 1.6 1.6 0.00 0.00 0.00 83 1022.2
20260506151845 13 7 0.0 1.6 0.00 0.00 0.00 84 1022.1
20260506151341 13 6 1.6 3.2 0.00 0.00 0.00 83 1022.4
20260506150839 13 8 1.6 1.6 0.00 0.00 0.00 83 1022.2
20260506150335 13 9 1.6 1.6 0.00 0.00 0.00 83 1022.0
20260506145832 13 9 3.2 4.8 0.00 0.00 0.00 83 1022.1
20260506145328 13 14 0.0 3.2 0.00 0.00 0.00 82 1022.0
20260506144826 13 14 0.0 1.6 0.00 0.00 0.00 83 1021.9
20260506144322 13 14 1.6 1.6 0.00 0.00 0.00 83 1022.0
20260506143821 13 15 1.6 1.6 0.00 0.00 0.00 83 1022.0
20260506143317 13 15 1.6 1.6 0.00 0.00 0.00 83 1021.7
20260506142816 13 15 1.6 3.2 0.00 0.00 0.00 83 1021.6
20260506142313 13 20 4.8 4.8 0.00 0.00 0.00 82 1021.4
20260506141811 13 15 1.6 3.2 0.00 0.00 0.00 83 1021.2
20260506141309 13 13 1.6 3.2 0.00 0.00 0.00 83 1021.1
20260506140807 13 13 3.2 4.8 0.00 0.00 0.00 83 1021.0
20260506140303 13 15 3.2 3.2 0.00 0.00 0.00 84 1021.3
20260506135801 13 15 1.6 1.6 0.00 0.00 0.00 84 1021.2
20260506135256 13 15 1.6 1.6 0.00 0.00 0.00 84 1021.4
20260506134754 13 15 1.6 1.6 0.00 0.00 0.00 84 1021.2
20260506134250 13 15 1.6 1.6 0.00 0.00 0.00 84 1021.0
20260506133747 13 15 0.0 0.0 0.00 0.00 0.00 84 1021.3
20260506133244 13 15 0.0 0.0 0.00 0.00 0.00 84 1020.9
20260506132740 13 15 1.6 1.6 0.00 0.00 0.00 84 1021.1
20260506132238 13 15 0.0 0.0 0.00 0.00 0.00 84 1021.0
20260506131736 13 15 0.0 0.0 0.00 0.00 0.00 84 1020.8
20260506131231 13 15 0.0 1.6 0.00 0.00 0.00 84 1021.0
20260506130728 13 15 0.0 1.6 0.00 0.00 0.00 84 1020.8
20260506130225 13 15 1.6 3.2 0.00 0.00 0.00 84 1020.7
20260506125724 13 15 1.6 1.6 0.00 0.00 0.00 84 1020.7
20260506125221 13 15 0.0 0.0 0.00 0.00 0.00 84 1020.7
20260506124719 13 15 0.0 0.0 0.00 0.00 0.00 84 1020.6
20260506124217 13 15 0.0 0.0 0.00 0.00 0.00 83 1020.6
20260506123714 13 15 0.0 0.0 0.00 0.00 0.00 83 1020.6
20260506123213 13 15 0.0 4.8 0.00 0.00 0.00 83 1020.6
20260506122709 13 20 1.6 1.6 0.00 0.00 0.00 83 1020.8
20260506122206 13 21 0.0 0.0 0.00 0.00 0.00 83 1020.8
20260506121704 13 22 1.6 3.2 0.00 0.00 0.00 83 1020.8
20260506121200 13 32 1.6 1.6 0.00 0.00 0.00 83 1020.5
20260506120658 13 32 0.0 0.0 0.00 0.00 0.00 83 1020.7
20260506120155 13 32 1.6 3.2 0.00 0.00 0.00 82 1020.7
20260506115654 13 44 1.6 3.2 0.00 0.00 0.00 83 1020.6
20260506115152 13 3 1.6 4.8 0.00 0.00 0.00 82 1020.6
20260506114648 13 12 1.6 1.6 0.00 0.00 0.00 83 1020.2
20260506114146 13 12 1.6 4.8 0.00 0.00 0.00 82 1020.4
20260506113645 13 12 0.0 3.2 0.00 0.00 0.00 82 1020.4
20260506113142 13 12 1.6 3.2 0.00 0.00 0.00 82 1020.2
20260506112637 13 13 0.0 1.6 0.00 0.00 0.00 82 1020.2
20260506112136 13 12 3.2 3.2 0.00 0.00 0.00 82 1020.2
20260506111633 13 15 1.6 4.8 0.00 0.00 0.00 82 1020.1
20260506111131 13 18 1.6 1.6 0.00 0.00 0.00 82 1020.1
20260506110628 13 20 0.0 1.6 0.00 0.00 0.00 82 1020.0